Location: ???????
(55.7027°N, 37.3832°E)
Time: 15:54:57
(UTC+00:00)

Cosmos 1782 - Pass Details

Date: 14 April 2026
Orbit: 459 x 465 km, 82.5° (Epoch: 17 May)

Event Time Altitude Azimuth Distance (km) Brightness Sun altitude
Exits shadow 23:15:12 21° 297° (WNW) 1,113 4.3 -21.1°
Drops below altitude 10° 23:17:50 10° 346° (NNW) 1,621 5.8 -20.9°
Sets 23:20:19 0° 3° (N) 2,501 7.3 -20.7°
